Tracking 30415 objects as of 14-May-2025
HD Live streaming from Space Station
objects crossing your sky now

THORAD AGENA D DEB

Track THORAD AGENA D DEB now!
10-day predictions


NORAD ID: 5129
Int'l Code: 1970-025JN
Perigee: 917.5 km
Apogee: 1,199.5 km
Inclination: 99.3 °
Period: 106.2 minutes
Semi major axis: 7429 km
RCS: 0.0305 m2 (small)
Launch date: April 8, 1970
Source: United States (US)
Launch site: AIR FORCE WESTERN TEST RANGE (AFWTR)

Note: This is SATELLITE DEBRIS
Your satellite tracking list
Your tracking list is empty




NASA's NSSDC Master Catalog

Two Line Element Set (TLE):
1 05129U 70025JN  25133.27856181  .00001267  00000-0  16736-2 0  9994
2 05129  99.3112 240.1057 0189831  15.1073  39.7834 13.55699312679426
Source of the keplerian elements: AFSPC